[[{"header":{"parameterUnit":"m.s-1","parameterCategory":1,"la1":30.2991,"la2":30.254,"lo1":-89.0895,"lo2":-89.0444,"dy":0.0017,"dx":0.0017,"nx":28,"ny":28,"refTime":"2023-11-05T03:00:00:Z","depth":0,"parameterNumber":2,"parameterNumberName":"U-component_of_WINDS"},"data":[0,0,0,0,0,0,0,0,0,0,0,0,0,0,0,0,0,0,0,0,0,0,0,0,0,0,0,0,0,0,0,0,0,0,0,0,0,0,0,0,0,0,0,0,0,0,0,0,0,0,0,0,0,0,0,0,0,0,0.4439,0.4438,0,0.44,0.4399,0.4399,0.4394,0.4395,0.4395,0.4395,0.4351,0.4349,0.4348,0,0,0,0,0,0,0,0,0,0,0,0,0,0.4507,0.4506,0.4439,0.4438,0.4438,0.44,0.4399,0.4398,0.4394,0.4395,0.4395,0.4396,0.4351,0.435,0.4348,0,0,0,0,0,0,0,0,0,0,0,0,0,0.4473,0.4505,0.4439,0.4431,0.443,0.44,0.4399,0.4398,0.4394,0.4395,0.4395,0.4396,0.4352,0.435,0.4347,0.4321,0,0,0.434,0.4339,0,0,0,0,0,0,0,0,0.4475,0.4471,0.4433,0.4432,0.443,0.4403,0.4407,0.4372,0.4394,0.4408,0.4395,0.4396,0.4367,0.4364,0.4355,0.4319,0.4317,0.434,0.4339,0.4338,0.4337,0,0,0,0,0,0,0,0.4478,0.4472,0.4423,0.4432,0.4431,0.4429,0.4425,0.44,0.4384,0.4406,0.4406,0.4402,0.4367,0.4357,0.4354,0.4316,0.434,0.4338,0.4336,0.4336,0.4257,0.4256,0,0,0,0,0,0,0.4482,0.4474,0.4424,0.4422,0.4455,0.4427,0.4422,0.4411,0.4385,0.4381,0.4401,0.4402,0.4361,0.4356,0.4352,0.4319,0.4338,0.4335,0.4334,0.4257,0.4256,0.4256,0,0,0,0,0,0,0.4483,0.4477,0.4426,0.4448,0.4441,0.4425,0.4412,0.441,0.44,0.4381,0.4378,0.4395,0.4361,0.4355,0.4329,0.4318,0.4334,0.4332,0.4258,0.4257,0.4256,0.4254,0,0,0,0,0,0,0.4485,0.4478,0.4468,0.4448,0.444,0.4404,0.4411,0.4408,0.4397,0.4397,0.4374,0.437,0.4361,0.4333,0.4327,0.4315,0.433,0.4259,0.4258,0.4256,0.4255,0.4253,0.4251,0,0,0,0,0,0.4488,0.4468,0.4468,0.4462,0.4428,0.4404,0.4399,0.439,0.4396,0.4385,0.4373,0.4371,0.432,0.433,0.4323,0.4311,0.426,0.4258,0.4256,0.4255,0.4253,0.4251,0,0,0,0,0,0,0.4485,0.4465,0.4465,0.4438,0.4423,0.4403,0.439,0.4388,0.437,0.437,0.4359,0.4354,0.4328,0.4317,0.4328,0.4284,0.429,0.4287,0.4292,0.4289,0.4288,0.429,0.4328,0,0,0,0,0,0.4482,0.4465,0.4448,0.4426,0.4419,0.4406,0.4395,0.439,0.4373,0.4366,0.4351,0.4334,0.4314,0.4301,0.4282,0.4254,0.4248,0.4242,0.424,0.4238,0.4236,0.422,0.4217,0.4251,0.4251,0.4251,0,0,0.4475,0.4461,0.4451,0.4426,0.4413,0.4395,0.44,0.438,0.4367,0.4362,0.4337,0.4326,0.4306,0.4279,0.4266,0.4268,0.4226,0.4236,0.4236,0.4233,0.4218,0.4215,0.4212,0.4249,0.425,0.425,0,0,0.4451,0.444,0.4421,0.4409,0.4391,0.4383,0.4378,0.4359,0.4352,0.4327,0.4324,0.4307,0.4273,0.4259,0.4247,0.4221,0.4218,0.4215,0.4205,0.419,0.4187,0.4185,0.4175,0.4172,0.4212,0.4212,0.4212,0,0.4444,0.4418,0.4411,0.4392,0.4381,0.4378,0.4358,0.4347,0.4322,0.4314,0.4318,0.4277,0.4263,0.4232,0.4226,0.4217,0.4211,0.4217,0.4189,0.4186,0.4184,0.4174,0.4171,0.4212,0.4212,0.4212,0.4212,0,0.4409,0.4391,0.4378,0.4357,0.4344,0.4324,0.4314,0.4302,0.4298,0.4289,0.4264,0.4248,0.4225,0.4218,0.4213,0.4187,0.4189,0.4191,0.4197,0.418,0.4171,0.4168,0.4212,0.4212,0.4212,0.4212,0,0,0.4382,0.4359,0.4354,0.4345,0.4325,0.4311,0.4291,0.4271,0.4261,0.4245,0.4228,0.42,0.4202,0.4189,0.4183,0.417,0.4151,0.4174,0.4173,0.417,0.4121,0.4119,0.4115,0.415,0.4149,0.4148,0.4123,0,0.4356,0.4323,0.4317,0.4288,0.4271,0.4269,0.4252,0.4238,0.4229,0.4213,0.4203,0.4184,0.4188,0.418,0.4168,0.4156,0.4141,0.4158,0.4133,0.4132,0.4137,0.4111,0.4109,0.4085,0.4119,0.4118,0.4118,0,0.4321,0.4307,0.4276,0.426,0.4253,0.4238,0.4219,0.4204,0.4188,0.4183,0.417,0.4166,0.4145,0.4153,0.4124,0.4136,0.4126,0.4119,0.4117,0.4114,0.4123,0.4106,0.4077,0.4074,0.4112,0.4113,0.4113,0,0.4304,0.4277,0.4255,0.4247,0.4228,0.4218,0.4209,0.4194,0.4182,0.4166,0.4159,0.414,0.4129,0.4114,0.4105,0.4112,0.4077,0.4084,0.4071,0.4071,0.4063,0.4063,0.4031,0.4057,0.4057,0.4057,0.4057,0,0.4276,0.4257,0.4247,0.4234,0.4213,0.4206,0.4185,0.4176,0.4163,0.4147,0.4144,0.4129,0.4119,0.4102,0.4095,0.4072,0.4067,0.4062,0.406,0.4062,0.4062,0.4054,0.4055,0.4056,0.4056,0.4057,0.4057,0,0.4253,0.4246,0.4222,0.4207,0.4202,0.4187,0.4174,0.416,0.4153,0.4133,0.4128,0.4115,0.4096,0.4086,0.4061,0.4056,0.403,0.4029,0.4036,0.4035,0.4022,0.4024,0.3983,0.3978,0.4008,0.4008,0.4007,0,0.4235,0.4221,0.4205,0.4195,0.4186,0.417,0.4159,0.4152,0.4141,0.4123,0.4111,0.4092,0.4076,0.4045,0.4033,0.4014,0.4013,0.4,0.401,0.4012,0.4012,0.4013,0.4012,0.3998,0.3998,0.3998,0.3997,0,0.4204,0.4201,0.4187,0.4171,0.4158,0.4145,0.4132,0.4123,0.4114,0.4102,0.4083,0.4071,0.4046,0.4027,0.4008,0.3998,0.3996,0.3995,0.3991,0.3992,0.3996,0.3994,0.4031,0.3995,0.3995,0.3996,0.3996,0.3996,0.4182,0.417,0.4157,0.4141,0.4131,0.4119,0.4106,0.4098,0.4082,0.4063,0.406,0.4039,0.4024,0.3999,0.3988,0.3972,0.3974,0.3969,0.3967,0.3965,0.3965,0.4,0.3968,0.3968,0.3968,0.3969,0.3969,0,0.4151,0.4143,0.4128,0.4111,0.4098,0.41,0.4086,0.4074,0.4057,0.4044,0.4029,0.4008,0.399,0.3977,0.3958,0.3948,0.3946,0.3943,0.3943,0.3941,0.3964,0.3969,0.3944,0.3944,0.3944,0.3944,0.3944,0.3944,0.4133,0.4113,0.4109,0.4083,0.4075,0.4056,0.4048,0.4037,0.4027,0.4003,0.3989,0.3982,0.3969,0.3949,0.3933,0.393,0.3922,0.3919,0.3916,0.3937,0.3939,0.3942,0.3947,0.3918,0.3918,0.3894,0.3894,0.3894]},{"header":{"parameterUnit":"m.s-1","parameterCategory":1,"la1":30.2991,"la2":30.254,"lo1":-89.0895,"lo2":-89.0444,"dy":0.0017,"dx":0.0017,"nx":28,"ny":28,"refTime":"2023-11-05T03:00:00:Z","depth":0,"parameterNumber":3,"parameterNumberName":"V-component_of_WINDS"},"data":[0,0,0,0,0,0,0,0,0,0,0,0,0,0,0,0,0,0,0,0,0,0,0,0,0,0,0,0,0,0,0,0,0,0,0,0,0,0,0,0,0,0,0,0,0,0,0,0,0,0,0,0,0,0,0,0,0,0,-2.6587,-2.6588,0,-2.6676,-2.6677,-2.6678,-2.6655,-2.6653,-2.6651,-2.665,-2.6739,-2.6742,-2.6746,0,0,0,0,0,0,0,0,0,0,0,0,0,-2.6398,-2.6402,-2.6587,-2.6588,-2.659,-2.6676,-2.6677,-2.6678,-2.6655,-2.6653,-2.6651,-2.6649,-2.6737,-2.6742,-2.6747,0,0,0,0,0,0,0,0,0,0,0,0,0,-2.6483,-2.6403,-2.6587,-2.6588,-2.6589,-2.6676,-2.6677,-2.6679,-2.6656,-2.6653,-2.665,-2.6648,-2.6736,-2.6742,-2.6747,-2.6837,0,0,-2.6766,-2.6768,0,0,0,0,0,0,0,0,-2.6478,-2.649,-2.6587,-2.6589,-2.659,-2.6652,-2.6643,-2.6732,-2.6656,-2.663,-2.665,-2.6647,-2.6712,-2.672,-2.6742,-2.6841,-2.6845,-2.6766,-2.677,-2.6773,-2.6774,0,0,0,0,0,0,0,-2.6473,-2.6486,-2.6622,-2.6589,-2.659,-2.6585,-2.6594,-2.666,-2.6685,-2.6633,-2.6631,-2.6642,-2.6712,-2.6736,-2.6744,-2.6847,-2.6766,-2.6771,-2.6775,-2.6778,-2.7028,-2.7031,0,0,0,0,0,0,-2.6466,-2.6481,-2.662,-2.6625,-2.6527,-2.659,-2.6601,-2.6635,-2.6684,-2.6689,-2.6644,-2.6641,-2.6727,-2.6737,-2.6747,-2.6858,-2.6772,-2.6778,-2.6782,-2.7025,-2.7029,-2.7032,0,0,0,0,0,0,-2.6462,-2.6478,-2.6616,-2.6553,-2.657,-2.6597,-2.6635,-2.6638,-2.6662,-2.6693,-2.6697,-2.6664,-2.6725,-2.6738,-2.6816,-2.686,-2.6781,-2.6786,-2.7021,-2.7026,-2.703,-2.7078,0,0,0,0,0,0,-2.6456,-2.6477,-2.6511,-2.6554,-2.6574,-2.6684,-2.6637,-2.6641,-2.6673,-2.6669,-2.6713,-2.6718,-2.6724,-2.6807,-2.6822,-2.6867,-2.6791,-2.7018,-2.7024,-2.7029,-2.7073,-2.7084,-2.7093,0,0,0,0,0,-2.645,-2.6519,-2.6513,-2.6529,-2.6617,-2.6686,-2.6697,-2.6704,-2.6676,-2.6711,-2.6732,-2.6716,-2.6853,-2.6815,-2.6832,-2.6879,-2.7015,-2.7022,-2.7029,-2.7068,-2.7082,-2.7093,0,0,0,0,0,0,-2.6479,-2.6525,-2.6518,-2.6604,-2.6642,-2.6682,-2.6726,-2.6718,-2.6763,-2.6758,-2.6764,-2.6774,-2.6854,-2.6874,-2.6831,-2.6971,-2.693,-2.694,-2.6954,-2.6967,-2.6978,-2.6971,-2.6796,0,0,0,0,0,-2.6496,-2.6549,-2.6586,-2.6658,-2.6678,-2.6699,-2.6729,-2.6732,-2.6771,-2.6786,-2.6812,-2.685,-2.6902,-2.6936,-2.6985,-2.7076,-2.7086,-2.7117,-2.7127,-2.7136,-2.7144,-2.7197,-2.7212,-2.7055,-2.7055,-2.7054,0,0,-2.653,-2.6562,-2.6595,-2.6665,-2.6694,-2.675,-2.6712,-2.6771,-2.6812,-2.6795,-2.687,-2.6891,-2.6934,-2.702,-2.7059,-2.7039,-2.7191,-2.7144,-2.7151,-2.7155,-2.7206,-2.722,-2.7234,-2.7059,-2.7058,-2.7058,0,0,-2.6622,-2.6651,-2.6715,-2.6746,-2.6792,-2.6807,-2.6823,-2.6865,-2.6879,-2.6955,-2.6945,-2.6994,-2.7082,-2.7114,-2.7142,-2.7251,-2.7239,-2.7267,-2.732,-2.7371,-2.7383,-2.7394,-2.7435,-2.7449,-2.7275,-2.7276,-2.7276,0,-2.6659,-2.6741,-2.6749,-2.6811,-2.6843,-2.6832,-2.6898,-2.6928,-2.6987,-2.701,-2.6987,-2.7101,-2.7129,-2.7223,-2.725,-2.7273,-2.7292,-2.7261,-2.7381,-2.7392,-2.7403,-2.7441,-2.7456,-2.7279,-2.7278,-2.7278,-2.7278,0,-2.6785,-2.6843,-2.689,-2.695,-2.6987,-2.7051,-2.7069,-2.7106,-2.7107,-2.7124,-2.7203,-2.7237,-2.7295,-2.7317,-2.7317,-2.7413,-2.74,-2.7379,-2.7338,-2.7421,-2.7457,-2.7472,-2.7283,-2.7282,-2.7281,-2.728,0,0,-2.6895,-2.6961,-2.6978,-2.7007,-2.7059,-2.7104,-2.7168,-2.7226,-2.7258,-2.73,-2.7355,-2.7433,-2.7415,-2.7447,-2.7451,-2.7496,-2.7583,-2.7471,-2.7472,-2.7491,-2.7693,-2.7708,-2.7725,-2.7576,-2.7578,-2.7581,-2.7689,0,-2.6992,-2.7105,-2.7116,-2.7218,-2.7273,-2.7265,-2.7321,-2.736,-2.7379,-2.7428,-2.7448,-2.7504,-2.7476,-2.7496,-2.754,-2.7563,-2.7623,-2.7555,-2.7627,-2.763,-2.7617,-2.7743,-2.7759,-2.786,-2.7703,-2.7706,-2.7708,0,-2.7119,-2.7168,-2.7275,-2.7323,-2.7346,-2.7397,-2.7452,-2.75,-2.7544,-2.7555,-2.7593,-2.7592,-2.7659,-2.7617,-2.771,-2.7664,-2.7695,-2.7711,-2.7715,-2.7722,-2.7674,-2.7755,-2.7892,-2.7907,-2.773,-2.7728,-2.7726,0,-2.719,-2.7282,-2.736,-2.7384,-2.7441,-2.7477,-2.7502,-2.7544,-2.7579,-2.7628,-2.7651,-2.7707,-2.7737,-2.7781,-2.7795,-2.7763,-2.789,-2.7848,-2.7901,-2.7901,-2.7928,-2.7926,-2.8072,-2.7947,-2.7946,-2.7946,-2.7946,0,-2.7297,-2.7364,-2.7393,-2.744,-2.7516,-2.7528,-2.7603,-2.7626,-2.7665,-2.7717,-2.7714,-2.7763,-2.778,-2.7832,-2.7844,-2.7922,-2.7935,-2.7946,-2.7949,-2.7947,-2.7946,-2.7967,-2.7961,-2.795,-2.7949,-2.7948,-2.7948,0,-2.7388,-2.741,-2.7495,-2.7543,-2.7557,-2.761,-2.7652,-2.7699,-2.7718,-2.7785,-2.7802,-2.7832,-2.7894,-2.7914,-2.7988,-2.7996,-2.8087,-2.8083,-2.8073,-2.8073,-2.8126,-2.8121,-2.8292,-2.8316,-2.8174,-2.8175,-2.8176,0,-2.7455,-2.7507,-2.7562,-2.7598,-2.7625,-2.7682,-2.7719,-2.7735,-2.7773,-2.783,-2.7871,-2.7933,-2.7983,-2.8084,-2.8112,-2.817,-2.8168,-2.8224,-2.8176,-2.8174,-2.8171,-2.8168,-2.8174,-2.8233,-2.8234,-2.8235,-2.8236,0,-2.7572,-2.7582,-2.7635,-2.7694,-2.7738,-2.7785,-2.783,-2.7859,-2.7882,-2.7925,-2.799,-2.803,-2.8108,-2.817,-2.823,-2.8257,-2.8251,-2.8252,-2.8267,-2.8266,-2.8258,-2.8265,-2.8098,-2.8247,-2.8246,-2.8245,-2.8245,-2.8244,-2.7654,-2.7701,-2.7748,-2.7809,-2.7845,-2.7888,-2.7935,-2.7962,-2.8016,-2.8082,-2.8088,-2.8159,-2.8205,-2.8285,-2.8315,-2.8371,-2.8355,-2.8377,-2.8383,-2.8388,-2.8394,-2.825,-2.8382,-2.8381,-2.8381,-2.8381,-2.8381,0,-2.7772,-2.7803,-2.7859,-2.7923,-2.7972,-2.7964,-2.8014,-2.8055,-2.8118,-2.8162,-2.8213,-2.8289,-2.8351,-2.8386,-2.8448,-2.8486,-2.8485,-2.8502,-2.8499,-2.8506,-2.8403,-2.8384,-2.8502,-2.8502,-2.8502,-2.8502,-2.8502,-2.8502,-2.7839,-2.7919,-2.7935,-2.8033,-2.8063,-2.8133,-2.8163,-2.8204,-2.8239,-2.8325,-2.8377,-2.84,-2.8441,-2.8507,-2.8564,-2.8573,-2.8596,-2.8615,-2.8622,-2.8525,-2.8513,-2.8501,-2.8483,-2.862,-2.862,-2.872,-2.8721,-2.8722]}]]